Location: Unspecified
(0.0000°N, 0.0000°E)
Time: 13:59:05
(UTC+00:00)

Explorer 7 - Pass Details

Date: 21 November 2019
Orbit: 485 x 680 km, 50.3° (Epoch: 08 December)

Event Time Altitude Azimuth Distance (km) Brightness Sun altitude
Rises 19:46:05 0° 214° (SSW) 2,999 11.4 -28.1°
Reaches altitude 10° 19:48:25 10° 212° (SSW) 2,098 10.4 -28.6°
Enters shadow 19:51:44 43° 201° (SSW) 951 8.2 -29.4°
Maximum altitude 19:53:18 74° 126° (SE) 704 - -29.7°
Drops below altitude 10° 19:58:10 10° 42° (NE) 2,098 - -30.8°
Sets 20:00:30 0° 40° (NE) 2,998 - -31.4°
